Time,TemperatureF,DewpointF,PressureIn,WindDirection,WindDirectionDegrees,WindSpeedMPH,WindSpeedGustMPH,Humidity,HourlyPrecipIn,Conditions,Clouds,dailyrainin,SoftwareType,DateUTC
2013-06-26 00:02:00,79.4,51.6,29.70,SSW,211,16.0,17.0,38,0.00,,,0.00,Wunderground v.1.15,2013-06-26 07:02:00,
2013-06-26 00:08:00,79.2,51.4,29.70,SSW,196,15.0,17.0,38,0.00,,,0.00,Wunderground v.1.15,2013-06-26 07:08:00,
2013-06-26 00:14:00,78.7,51.7,29.70,WSW,237,16.0,20.0,39,0.00,,,0.00,Wunderground v.1.15,2013-06-26 07:14:00,
2013-06-26 00:20:00,78.1,51.8,29.71,SSW,205,17.0,17.0,40,0.00,,,0.00,Wunderground v.1.15,2013-06-26 07:20:00,
2013-06-26 00:26:00,77.8,52.2,29.70,SSW,213,16.0,23.0,41,0.00,,,0.00,Wunderground v.1.15,2013-06-26 07:26:00,
2013-06-26 00:32:00,78.1,51.8,29.70,SSW,207,16.0,21.0,40,0.00,,,0.00,Wunderground v.1.15,2013-06-26 07:32:00,
2013-06-26 00:38:00,78.2,51.9,29.71,SSW,211,16.0,21.0,40,0.00,,,0.00,Wunderground v.1.15,2013-06-26 07:38:00,
2013-06-26 00:44:00,78.2,51.9,29.71,SSW,203,14.0,15.0,40,0.00,,,0.00,Wunderground v.1.15,2013-06-26 07:44:00,
2013-06-26 00:50:00,77.9,52.3,29.71,SSW,200,15.0,21.0,41,0.00,,,0.00,Wunderground v.1.15,2013-06-26 07:50:00,
2013-06-26 00:56:00,78.0,52.4,29.71,SSW,197,18.0,21.0,41,0.00,,,0.00,Wunderground v.1.15,2013-06-26 07:56:00,
2013-06-26 01:02:00,78.0,52.4,29.71,SSW,202,18.0,20.0,41,0.00,,,0.00,Wunderground v.1.15,2013-06-26 08:02:00,
2013-06-26 01:08:00,77.8,52.2,29.70,SW,220,17.0,20.0,41,0.00,,,0.00,Wunderground v.1.15,2013-06-26 08:08:00,
2013-06-26 01:14:00,77.6,52.7,29.70,SSW,192,14.0,16.0,42,0.00,,,0.00,Wunderground v.1.15,2013-06-26 08:14:00,
2013-06-26 01:20:00,77.7,52.8,29.70,SSW,192,15.0,15.0,42,0.00,,,0.00,Wunderground v.1.15,2013-06-26 08:20:00,
2013-06-26 01:26:00,77.8,52.9,29.70,SSW,207,16.0,20.0,42,0.00,,,0.00,Wunderground v.1.15,2013-06-26 08:26:00,
2013-06-26 01:32:00,77.8,52.9,29.70,South,187,16.0,24.0,42,0.00,,,0.00,Wunderground v.1.15,2013-06-26 08:32:00,
2013-06-26 01:38:00,78.0,53.0,29.70,SSW,192,19.0,24.0,42,0.00,,,0.00,Wunderground v.1.15,2013-06-26 08:38:00,
2013-06-26 01:44:00,78.0,53.0,29.70,SSW,205,20.0,26.0,42,0.00,,,0.00,Wunderground v.1.15,2013-06-26 08:44:00,
2013-06-26 01:50:00,77.8,53.5,29.70,SSW,194,20.0,22.0,43,0.00,,,0.00,Wunderground v.1.15,2013-06-26 08:50:00,
2013-06-26 01:56:00,77.5,53.2,29.71,SSW,198,20.0,22.0,43,0.00,,,0.00,Wunderground v.1.15,2013-06-26 08:56:00,
2013-06-26 02:02:00,77.1,53.5,29.71,SW,221,19.0,23.0,44,0.00,,,0.00,Wunderground v.1.15,2013-06-26 09:02:00,
2013-06-26 02:08:00,77.1,53.5,29.71,SW,230,17.0,23.0,44,0.00,,,0.00,Wunderground v.1.15,2013-06-26 09:08:00,
2013-06-26 02:14:00,77.2,53.0,29.71,SSW,207,18.0,18.0,43,0.00,,,0.00,Wunderground v.1.15,2013-06-26 09:14:00,
2013-06-26 02:20:00,77.2,53.0,29.71,SW,225,17.0,17.0,43,0.00,,,0.00,Wunderground v.1.15,2013-06-26 09:20:00,
2013-06-26 02:26:00,77.3,53.1,29.71,SSW,205,17.0,20.0,43,0.00,,,0.00,Wunderground v.1.15,2013-06-26 09:26:00,
2013-06-26 02:32:00,77.2,53.0,29.71,SSW,201,17.0,19.0,43,0.00,,,0.00,Wunderground v.1.15,2013-06-26 09:32:00,
2013-06-26 02:38:00,76.7,53.1,29.72,SSW,206,16.0,19.0,44,0.00,,,0.00,Wunderground v.1.15,2013-06-26 09:38:00,
2013-06-26 02:44:00,76.6,53.1,29.71,SSW,206,18.0,20.0,44,0.00,,,0.00,Wunderground v.1.15,2013-06-26 09:44:00,
2013-06-26 02:50:00,76.5,53.0,29.72,SW,218,16.0,16.0,44,0.00,,,0.00,Wunderground v.1.15,2013-06-26 09:50:00,
2013-06-26 02:56:00,76.3,52.8,29.72,SSW,206,13.0,16.0,44,0.00,,,0.00,Wunderground v.1.15,2013-06-26 09:56:00,
2013-06-26 03:02:00,76.0,53.1,29.72,SW,215,14.0,16.0,45,0.00,,,0.00,Wunderground v.1.15,2013-06-26 10:02:00,
2013-06-26 03:08:00,75.7,53.4,29.72,SSW,202,13.0,16.0,46,0.00,,,0.00,Wunderground v.1.15,2013-06-26 10:08:00,
2013-06-26 03:14:00,76.0,53.1,29.72,South,185,15.0,17.0,45,0.00,,,0.00,Wunderground v.1.15,2013-06-26 10:14:00,
2013-06-26 03:20:00,76.4,52.9,29.72,SSW,196,16.0,16.0,44,0.00,,,0.00,Wunderground v.1.15,2013-06-26 10:20:00,
2013-06-26 03:26:00,76.3,52.8,29.72,SSW,207,16.0,21.0,44,0.00,,,0.00,Wunderground v.1.15,2013-06-26 10:26:00,
2013-06-26 03:32:00,76.3,52.8,29.72,SSW,202,16.0,19.0,44,0.00,,,0.00,Wunderground v.1.15,2013-06-26 10:32:00,
2013-06-26 03:38:00,76.2,53.3,29.72,SW,215,16.0,19.0,45,0.00,,,0.00,Wunderground v.1.15,2013-06-26 10:38:00,
2013-06-26 03:44:00,76.2,53.3,29.72,SSW,213,16.0,20.0,45,0.00,,,0.00,Wunderground v.1.15,2013-06-26 10:44:00,
2013-06-26 03:50:00,76.1,53.2,29.73,SW,223,16.0,16.0,45,0.00,,,0.00,Wunderground v.1.15,2013-06-26 10:50:00,
2013-06-26 03:56:00,76.0,53.1,29.73,SSW,202,15.0,16.0,45,0.00,,,0.00,Wunderground v.1.15,2013-06-26 10:56:00,
2013-06-26 04:02:00,75.7,52.8,29.73,SW,219,12.0,13.0,45,0.00,,,0.00,Wunderground v.1.15,2013-06-26 11:02:00,
2013-06-26 04:08:00,75.5,52.7,29.73,SW,214,10.0,14.0,45,0.00,,,0.00,Wunderground v.1.15,2013-06-26 11:08:00,
2013-06-26 04:14:00,75.4,53.2,29.73,SSW,207,10.0,13.0,46,0.00,,,0.00,Wunderground v.1.15,2013-06-26 11:14:00,
2013-06-26 04:20:00,75.3,53.1,29.73,SW,222,12.0,16.0,46,0.00,,,0.00,Wunderground v.1.15,2013-06-26 11:20:00,
2013-06-26 04:26:00,75.3,53.1,29.73,SSW,196,15.0,16.0,46,0.00,,,0.00,Wunderground v.1.15,2013-06-26 11:26:00,
2013-06-26 04:32:00,75.3,52.5,29.73,SSW,209,15.0,16.0,45,0.00,,,0.00,Wunderground v.1.15,2013-06-26 11:32:00,
2013-06-26 04:38:00,75.4,52.6,29.74,South,186,14.0,16.0,45,0.00,,,0.00,Wunderground v.1.15,2013-06-26 11:38:00,
2013-06-26 04:44:00,75.3,52.5,29.74,SSW,213,13.0,14.0,45,0.00,,,0.00,Wunderground v.1.15,2013-06-26 11:44:00,
2013-06-26 04:50:00,75.2,52.4,29.74,SW,224,12.0,12.0,45,0.00,,,0.00,Wunderground v.1.15,2013-06-26 11:50:00,
2013-06-26 04:56:00,75.1,52.9,29.75,WSW,242,10.0,12.0,46,0.00,,,0.00,Wunderground v.1.15,2013-06-26 11:56:00,
2013-06-26 05:02:00,75.3,52.5,29.75,SW,215,11.0,17.0,45,0.00,,,0.00,Wunderground v.1.15,2013-06-26 12:02:00,
2013-06-26 05:08:00,75.2,52.4,29.75,SSW,205,12.0,17.0,45,0.00,,,0.00,Wunderground v.1.15,2013-06-26 12:08:00,
2013-06-26 05:14:00,74.9,52.7,29.75,SSW,205,11.0,12.0,46,0.00,,,0.00,Wunderground v.1.15,2013-06-26 12:14:00,
2013-06-26 05:20:00,74.8,52.0,29.75,SW,225,11.0,11.0,45,0.00,,,0.00,Wunderground v.1.15,2013-06-26 12:20:00,
2013-06-26 05:26:00,74.5,52.4,29.75,SSW,198,10.0,12.0,46,0.00,,,0.00,Wunderground v.1.15,2013-06-26 12:26:00,
2013-06-26 05:32:00,74.3,52.2,29.76,SW,215,9.0,9.0,46,0.00,,,0.00,Wunderground v.1.15,2013-06-26 12:32:00,
2013-06-26 05:38:00,74.1,52.0,29.76,SW,222,9.0,12.0,46,0.00,,,0.00,Wunderground v.1.15,2013-06-26 12:38:00,
2013-06-26 05:44:00,74.1,52.0,29.76,SSW,204,9.0,10.0,46,0.00,,,0.00,Wunderground v.1.15,2013-06-26 12:44:00,
2013-06-26 05:50:00,74.2,52.1,29.76,SSW,209,9.0,11.0,46,0.00,,,0.00,Wunderground v.1.15,2013-06-26 12:50:00,
2013-06-26 05:56:00,74.7,52.5,29.76,SSW,193,12.0,15.0,46,0.00,,,0.00,Wunderground v.1.15,2013-06-26 12:56:00,
2013-06-26 06:02:00,75.1,52.3,29.77,South,187,12.0,13.0,45,0.00,,,0.00,Wunderground v.1.15,2013-06-26 13:02:00,
2013-06-26 06:08:00,75.5,52.1,29.77,South,190,12.0,13.0,44,0.00,,,0.00,Wunderground v.1.15,2013-06-26 13:08:00,
2013-06-26 06:14:00,76.0,52.5,29.77,SW,215,9.0,11.0,44,0.00,,,0.00,Wunderground v.1.15,2013-06-26 13:14:00,
2013-06-26 06:20:00,76.1,52.6,29.77,WSW,242,7.0,7.0,44,0.00,,,0.00,Wunderground v.1.15,2013-06-26 13:20:00,
2013-06-26 06:26:00,75.8,52.3,29.77,SW,223,8.0,9.0,44,0.00,,,0.00,Wunderground v.1.15,2013-06-26 13:26:00,
2013-06-26 06:32:00,75.7,52.2,29.77,WSW,237,7.0,8.0,44,0.00,,,0.00,Wunderground v.1.15,2013-06-26 13:32:00,
2013-06-26 06:38:00,76.0,53.1,29.77,WSW,254,6.0,8.0,45,0.00,,,0.00,Wunderground v.1.15,2013-06-26 13:38:00,
2013-06-26 06:44:00,76.5,52.3,29.77,WSW,253,5.0,5.0,43,0.00,,,0.00,Wunderground v.1.15,2013-06-26 13:44:00,
2013-06-26 06:50:00,76.6,52.4,29.78,SW,234,5.0,6.0,43,0.00,,,0.00,Wunderground v.1.15,2013-06-26 13:50:00,
2013-06-26 06:56:00,76.8,52.6,29.78,WSW,239,6.0,6.0,43,0.00,,,0.00,Wunderground v.1.15,2013-06-26 13:56:00,
2013-06-26 07:02:00,77.3,53.1,29.78,WSW,246,5.0,6.0,43,0.00,,,0.00,Wunderground v.1.15,2013-06-26 14:02:00,
2013-06-26 07:08:00,77.9,53.6,29.78,West,263,4.0,6.0,43,0.00,,,0.00,Wunderground v.1.15,2013-06-26 14:08:00,
2013-06-26 07:14:00,78.2,53.2,29.78,West,261,4.0,6.0,42,0.00,,,0.00,Wunderground v.1.15,2013-06-26 14:14:00,
2013-06-26 07:20:00,78.7,53.0,29.78,SW,227,4.0,4.0,41,0.00,,,0.00,Wunderground v.1.15,2013-06-26 14:20:00,
2013-06-26 07:26:00,79.2,53.5,29.79,WSW,245,3.0,4.0,41,0.00,,,0.00,Wunderground v.1.15,2013-06-26 14:26:00,
2013-06-26 07:32:00,79.5,53.7,29.79,WSW,246,2.0,3.0,41,0.00,,,0.00,Wunderground v.1.15,2013-06-26 14:32:00,
2013-06-26 07:38:00,80.6,53.4,29.79,West,279,2.0,4.0,39,0.00,,,0.00,Wunderground v.1.15,2013-06-26 14:38:00,
2013-06-26 07:44:00,81.2,53.9,29.79,WNW,285,2.0,6.0,39,0.00,,,0.00,Wunderground v.1.15,2013-06-26 14:44:00,
2013-06-26 07:50:00,80.9,52.9,29.79,WNW,284,3.0,3.0,38,0.00,,,0.00,Wunderground v.1.15,2013-06-26 14:50:00,
2013-06-26 07:56:00,81.5,53.4,29.79,WNW,292,2.0,3.0,38,0.00,,,0.00,Wunderground v.1.15,2013-06-26 14:56:00,
2013-06-26 08:02:00,82.2,54.1,29.80,WNW,298,3.0,3.0,38,0.00,,,0.00,Wunderground v.1.15,2013-06-26 15:02:00,
2013-06-26 08:08:00,82.8,53.9,29.79,NW,314,3.0,4.0,37,0.00,,,0.00,Wunderground v.1.15,2013-06-26 15:08:00,
2013-06-26 08:14:00,83.1,53.4,29.79,NW,309,3.0,4.0,36,0.00,,,0.00,Wunderground v.1.15,2013-06-26 15:14:00,
2013-06-26 08:20:00,83.9,53.3,29.79,WNW,298,2.0,2.0,35,0.00,,,0.00,Wunderground v.1.15,2013-06-26 15:20:00,
2013-06-26 08:26:00,84.3,53.7,29.79,WNW,298,2.0,3.0,35,0.00,,,0.00,Wunderground v.1.15,2013-06-26 15:26:00,
2013-06-26 08:32:00,84.1,52.7,29.80,WNW,298,3.0,4.0,34,0.00,,,0.00,Wunderground v.1.15,2013-06-26 15:32:00,
2013-06-26 08:38:00,84.5,53.0,29.80,WNW,294,2.0,4.0,34,0.00,,,0.00,Wunderground v.1.15,2013-06-26 15:38:00,
2013-06-26 08:44:00,85.9,53.5,29.80,WNW,302,2.0,4.0,33,0.00,,,0.00,Wunderground v.1.15,2013-06-26 15:44:00,
2013-06-26 08:50:00,85.6,52.4,29.80,WNW,284,3.0,3.0,32,0.00,,,0.00,Wunderground v.1.15,2013-06-26 15:50:00,
2013-06-26 08:56:00,86.0,52.7,29.80,West,279,3.0,4.0,32,0.00,,,0.00,Wunderground v.1.15,2013-06-26 15:56:00,
2013-06-26 09:02:00,85.4,53.0,29.80,West,271,3.0,3.0,33,0.00,,,0.00,Wunderground v.1.15,2013-06-26 16:02:00,
2013-06-26 09:08:00,87.2,52.9,29.80,NW,325,2.0,5.0,31,0.00,,,0.00,Wunderground v.1.15,2013-06-26 16:08:00,
2013-06-26 09:14:00,87.4,53.9,29.80,WNW,303,2.0,2.0,32,0.00,,,0.00,Wunderground v.1.15,2013-06-26 16:14:00,
2013-06-26 09:20:00,87.6,53.2,29.80,WNW,294,2.0,6.0,31,0.00,,,0.00,Wunderground v.1.15,2013-06-26 16:20:00,
2013-06-26 09:26:00,87.7,52.4,29.80,WNW,292,2.0,6.0,30,0.00,,,0.00,Wunderground v.1.15,2013-06-26 16:26:00,
2013-06-26 09:32:00,87.0,52.7,29.80,SW,223,2.0,5.0,31,0.00,,,0.00,Wunderground v.1.15,2013-06-26 16:32:00,
2013-06-26 09:38:00,88.1,52.8,29.80,SW,219,2.0,5.0,30,0.00,,,0.00,Wunderground v.1.15,2013-06-26 16:38:00,
2013-06-26 09:44:00,88.1,52.8,29.80,WSW,237,2.0,2.0,30,0.00,,,0.00,Wunderground v.1.15,2013-06-26 16:44:00,
2013-06-26 09:50:00,88.5,53.1,29.80,West,269,3.0,7.0,30,0.00,,,0.00,Wunderground v.1.15,2013-06-26 16:50:00,
2013-06-26 09:56:00,89.6,54.1,29.80,West,274,3.0,7.0,30,0.00,,,0.00,Wunderground v.1.15,2013-06-26 16:56:00,
2013-06-26 10:02:00,90.3,53.7,29.80,SW,221,3.0,4.0,29,0.00,,,0.00,Wunderground v.1.15,2013-06-26 17:02:00,
2013-06-26 10:08:00,90.0,53.5,29.80,South,183,4.0,6.0,29,0.00,,,0.00,Wunderground v.1.15,2013-06-26 17:08:00,
2013-06-26 10:14:00,90.2,53.6,29.80,SSW,211,5.0,10.0,29,0.00,,,0.00,Wunderground v.1.15,2013-06-26 17:14:00,
2013-06-26 10:20:00,90.2,53.6,29.80,SSW,205,4.0,4.0,29,0.00,,,0.00,Wunderground v.1.15,2013-06-26 17:20:00,
2013-06-26 10:26:00,90.3,52.8,29.80,SSW,210,3.0,6.0,28,0.00,,,0.00,Wunderground v.1.15,2013-06-26 17:26:00,
2013-06-26 10:32:00,91.0,53.4,29.80,SSW,209,2.0,3.0,28,0.00,,,0.00,Wunderground v.1.15,2013-06-26 17:32:00,
2013-06-26 10:38:00,91.8,54.1,29.80,WSW,237,2.0,5.0,28,0.00,,,0.00,Wunderground v.1.15,2013-06-26 17:38:00,
2013-06-26 10:44:00,91.9,54.1,29.79,South,191,6.0,10.0,28,0.00,,,0.00,Wunderground v.1.15,2013-06-26 17:44:00,
2013-06-26 10:50:00,91.5,53.8,29.79,SW,223,6.0,6.0,28,0.00,,,0.00,Wunderground v.1.15,2013-06-26 17:50:00,
2013-06-26 10:56:00,92.0,54.2,29.79,West,277,2.0,6.0,28,0.00,,,0.00,Wunderground v.1.15,2013-06-26 17:56:00,
2013-06-26 11:02:00,93.2,54.3,29.79,South,183,3.0,4.0,27,0.00,,,0.00,Wunderground v.1.15,2013-06-26 18:02:00,
2013-06-26 11:08:00,93.0,54.1,29.79,WNW,286,3.0,4.0,27,0.00,,,0.00,Wunderground v.1.15,2013-06-26 18:08:00,
2013-06-26 11:14:00,93.8,54.8,29.79,West,272,1.0,4.0,27,0.00,,,0.00,Wunderground v.1.15,2013-06-26 18:14:00,
2013-06-26 11:20:00,94.8,54.6,29.78,WNW,303,2.0,4.0,26,0.00,,,0.00,Wunderground v.1.15,2013-06-26 18:20:00,
2013-06-26 11:26:00,96.2,54.7,29.78,East,101,3.0,4.0,25,0.00,,,0.00,Wunderground v.1.15,2013-06-26 18:26:00,
2013-06-26 11:32:00,95.1,54.8,29.78,ENE,67,3.0,5.0,26,0.00,,,0.00,Wunderground v.1.15,2013-06-26 18:32:00,
2013-06-26 11:38:00,94.9,53.6,29.78,NNE,30,3.0,5.0,25,0.00,,,0.00,Wunderground v.1.15,2013-06-26 18:38:00,
2013-06-26 11:44:00,96.1,54.6,29.78,NNE,24,3.0,4.0,25,0.00,,,0.00,Wunderground v.1.15,2013-06-26 18:44:00,
2013-06-26 11:50:00,96.5,54.9,29.78,NE,40,4.0,4.0,25,0.00,,,0.00,Wunderground v.1.15,2013-06-26 18:50:00,
2013-06-26 11:56:00,96.5,53.8,29.78,NNE,13,3.0,5.0,24,0.00,,,0.00,Wunderground v.1.15,2013-06-26 18:56:00,
2013-06-26 12:02:00,98.2,55.2,29.78,North,11,4.0,9.0,24,0.00,,,0.00,Wunderground v.1.15,2013-06-26 19:02:00,
2013-06-26 12:08:00,97.8,54.9,29.77,North,9,6.0,9.0,24,0.00,,,0.00,Wunderground v.1.15,2013-06-26 19:08:00,
2013-06-26 12:14:00,97.3,54.5,29.77,NNE,25,4.0,6.0,24,0.00,,,0.00,Wunderground v.1.15,2013-06-26 19:14:00,
2013-06-26 12:20:00,97.5,53.5,29.77,NE,55,3.0,4.0,23,0.00,,,0.00,Wunderground v.1.15,2013-06-26 19:20:00,
2013-06-26 12:26:00,98.6,54.4,29.77,NNE,31,3.0,5.0,23,0.00,,,0.00,Wunderground v.1.15,2013-06-26 19:26:00,
2013-06-26 12:32:00,98.8,53.3,29.77,NE,36,3.0,6.0,22,0.00,,,0.00,Wunderground v.1.15,2013-06-26 19:32:00,
2013-06-26 12:38:00,99.2,54.9,29.76,North,355,3.0,6.0,23,0.00,,,0.00,Wunderground v.1.15,2013-06-26 19:38:00,
2013-06-26 12:44:00,100.0,54.3,29.76,SE,140,2.0,3.0,22,0.00,,,0.00,Wunderground v.1.15,2013-06-26 19:44:00,
2013-06-26 12:50:00,100.5,53.5,29.76,SE,130,2.0,4.0,21,0.00,,,0.00,Wunderground v.1.15,2013-06-26 19:50:00,
2013-06-26 12:56:00,101.0,53.9,29.76,East,101,3.0,4.0,21,0.00,,,0.00,Wunderground v.1.15,2013-06-26 19:56:00,
2013-06-26 13:02:00,101.6,53.0,29.75,SE,145,3.0,9.0,20,0.00,,,0.00,Wunderground v.1.15,2013-06-26 20:02:00,
2013-06-26 13:08:00,101.2,52.7,29.75,South,190,3.0,9.0,20,0.00,,,0.00,Wunderground v.1.15,2013-06-26 20:08:00,
2013-06-26 13:14:00,103.1,51.4,29.75,SSW,198,8.0,14.0,18,0.00,,,0.00,Wunderground v.1.15,2013-06-26 20:14:00,
2013-06-26 13:20:00,102.5,50.9,29.75,SW,233,11.0,11.0,18,0.00,,,0.00,Wunderground v.1.15,2013-06-26 20:20:00,
2013-06-26 13:26:00,102.5,50.9,29.75,West,269,8.0,11.0,18,0.00,,,0.00,Wunderground v.1.15,2013-06-26 20:26:00,
2013-06-26 13:32:00,102.9,51.2,29.75,West,279,6.0,6.0,18,0.00,,,0.00,Wunderground v.1.15,2013-06-26 20:32:00,
2013-06-26 13:38:00,103.6,51.8,29.74,WSW,246,4.0,7.0,18,0.00,,,0.00,Wunderground v.1.15,2013-06-26 20:38:00,
2013-06-26 13:44:00,103.6,51.8,29.74,WSW,237,6.0,6.0,18,0.00,,,0.00,Wunderground v.1.15,2013-06-26 20:44:00,
2013-06-26 13:50:00,102.6,52.5,29.74,West,277,6.0,6.0,19,0.00,,,0.00,Wunderground v.1.15,2013-06-26 20:50:00,
2013-06-26 13:56:00,104.3,52.4,29.74,WSW,242,7.0,16.0,18,0.00,,,0.00,Wunderground v.1.15,2013-06-26 20:56:00,
2013-06-26 14:02:00,105.0,51.4,29.73,WNW,284,9.0,9.0,17,0.00,,,0.00,Wunderground v.1.15,2013-06-26 21:02:00,
2013-06-26 14:08:00,104.9,51.3,29.73,WNW,288,6.0,9.0,17,0.00,,,0.00,Wunderground v.1.15,2013-06-26 21:08:00,
2013-06-26 14:14:00,104.8,52.8,29.73,South,187,5.0,20.0,18,0.00,,,0.00,Wunderground v.1.15,2013-06-26 21:14:00,
2013-06-26 14:20:00,104.5,52.5,29.73,South,172,8.0,9.0,18,0.00,,,0.00,Wunderground v.1.15,2013-06-26 21:20:00,
2013-06-26 14:26:00,105.0,51.4,29.72,South,169,11.0,17.0,17,0.00,,,0.00,Wunderground v.1.15,2013-06-26 21:26:00,
2013-06-26 14:32:00,105.5,50.1,29.72,SSE,168,15.0,17.0,16,0.00,,,0.00,Wunderground v.1.15,2013-06-26 21:32:00,
2013-06-26 14:38:00,104.8,51.2,29.72,SSE,153,15.0,17.0,17,0.00,,,0.00,Wunderground v.1.15,2013-06-26 21:38:00,
2013-06-26 14:44:00,104.9,51.3,29.72,South,183,13.0,15.0,17,0.00,,,0.00,Wunderground v.1.15,2013-06-26 21:44:00,
2013-06-26 14:50:00,105.1,51.5,29.72,South,173,11.0,11.0,17,0.00,,,0.00,Wunderground v.1.15,2013-06-26 21:50:00,
2013-06-26 14:56:00,105.8,52.0,29.72,SSW,207,12.0,14.0,17,0.00,,,0.00,Wunderground v.1.15,2013-06-26 21:56:00,
2013-06-26 15:02:00,105.2,51.5,29.72,South,174,14.0,14.0,17,0.00,,,0.00,Wunderground v.1.15,2013-06-26 22:02:00,
2013-06-26 15:08:00,105.4,51.7,29.72,South,173,13.0,20.0,17,0.00,,,0.00,Wunderground v.1.15,2013-06-26 22:08:00,
2013-06-26 15:14:00,104.9,51.3,29.72,SSE,163,13.0,14.0,17,0.00,,,0.00,Wunderground v.1.15,2013-06-26 22:14:00,
2013-06-26 15:20:00,105.4,51.7,29.72,SSW,196,12.0,13.0,17,0.00,,,0.00,Wunderground v.1.15,2013-06-26 22:20:00,
2013-06-26 15:26:00,105.1,49.8,29.71,SSW,196,14.0,19.0,16,0.00,,,0.00,Wunderground v.1.15,2013-06-26 22:26:00,
2013-06-26 15:32:00,106.6,51.0,29.71,South,180,13.0,15.0,16,0.00,,,0.00,Wunderground v.1.15,2013-06-26 22:32:00,
2013-06-26 15:38:00,105.8,50.4,29.71,South,176,14.0,18.0,16,0.00,,,0.00,Wunderground v.1.15,2013-06-26 22:38:00,
2013-06-26 15:44:00,105.5,50.1,29.71,SW,218,14.0,14.0,16,0.00,,,0.00,Wunderground v.1.15,2013-06-26 22:44:00,
2013-06-26 15:50:00,105.8,50.4,29.71,SSW,197,15.0,15.0,16,0.00,,,0.00,Wunderground v.1.15,2013-06-26 22:50:00,
2013-06-26 15:56:00,106.1,50.6,29.71,SSW,210,14.0,15.0,16,0.00,,,0.00,Wunderground v.1.15,2013-06-26 22:56:00,
2013-06-26 16:02:00,105.7,50.3,29.71,SSW,202,14.0,14.0,16,0.00,,,0.00,Wunderground v.1.15,2013-06-26 23:02:00,
2013-06-26 16:08:00,105.4,50.1,29.71,SW,215,15.0,16.0,16,0.00,,,0.00,Wunderground v.1.15,2013-06-26 23:08:00,
2013-06-26 16:14:00,105.1,49.8,29.71,South,173,13.0,15.0,16,0.00,,,0.00,Wunderground v.1.15,2013-06-26 23:14:00,
2013-06-26 16:20:00,105.1,51.5,29.70,South,171,12.0,12.0,17,0.00,,,0.00,Wunderground v.1.15,2013-06-26 23:20:00,
2013-06-26 16:26:00,104.4,50.9,29.70,SSW,192,11.0,18.0,17,0.00,,,0.00,Wunderground v.1.15,2013-06-26 23:26:00,
2013-06-26 16:32:00,105.1,49.8,29.70,SSW,200,15.0,19.0,16,0.00,,,0.00,Wunderground v.1.15,2013-06-26 23:32:00,
2013-06-26 16:38:00,104.8,49.6,29.70,SW,219,16.0,19.0,16,0.00,,,0.00,Wunderground v.1.15,2013-06-26 23:38:00,
2013-06-26 16:44:00,104.9,49.7,29.70,South,191,13.0,15.0,16,0.00,,,0.00,Wunderground v.1.15,2013-06-26 23:44:00,
2013-06-26 16:50:00,104.5,49.3,29.70,WSW,238,13.0,13.0,16,0.00,,,0.00,Wunderground v.1.15,2013-06-26 23:50:00,
2013-06-26 16:56:00,104.4,49.3,29.70,WSW,250,15.0,22.0,16,0.00,,,0.00,Wunderground v.1.15,2013-06-26 23:56:00,
2013-06-26 17:02:00,104.0,50.6,29.70,SW,227,16.0,16.0,17,0.00,,,0.00,Wunderground v.1.15,2013-06-27 00:02:00,
2013-06-26 17:08:00,104.2,50.7,29.70,SSE,164,15.0,24.0,17,0.00,,,0.00,Wunderground v.1.15,2013-06-27 00:08:00,
2013-06-26 17:14:00,103.9,50.5,29.70,South,182,15.0,22.0,17,0.00,,,0.00,Wunderground v.1.15,2013-06-27 00:14:00,
2013-06-26 17:20:00,103.3,50.0,29.70,South,188,18.0,18.0,17,0.00,,,0.00,Wunderground v.1.15,2013-06-27 00:20:00,
2013-06-26 17:26:00,102.7,49.5,29.70,South,183,20.0,24.0,17,0.00,,,0.00,Wunderground v.1.15,2013-06-27 00:26:00,
2013-06-26 17:32:00,102.4,49.3,29.70,SW,221,20.0,21.0,17,0.00,,,0.00,Wunderground v.1.15,2013-06-27 00:32:00,
2013-06-26 17:38:00,102.6,49.5,29.70,South,173,19.0,21.0,17,0.00,,,0.00,Wunderground v.1.15,2013-06-27 00:38:00,
2013-06-26 17:44:00,103.0,49.8,29.70,WSW,249,16.0,18.0,17,0.00,,,0.00,Wunderground v.1.15,2013-06-27 00:44:00,
2013-06-26 17:50:00,102.4,49.3,29.70,SSW,205,17.0,21.0,17,0.00,,,0.00,Wunderground v.1.15,2013-06-27 00:50:00,
2013-06-26 17:56:00,101.9,50.4,29.70,SW,218,18.0,21.0,18,0.00,,,0.00,Wunderground v.1.15,2013-06-27 00:56:00,
2013-06-26 18:02:00,101.7,50.3,29.69,SSW,202,17.0,21.0,18,0.00,,,0.00,Wunderground v.1.15,2013-06-27 01:02:00,
2013-06-26 18:08:00,101.5,50.1,29.70,South,184,18.0,22.0,18,0.00,,,0.00,Wunderground v.1.15,2013-06-27 01:08:00,
2013-06-26 18:14:00,101.0,49.7,29.70,SSW,199,19.0,21.0,18,0.00,,,0.00,Wunderground v.1.15,2013-06-27 01:14:00,
2013-06-26 18:20:00,101.2,49.9,29.70,SW,217,14.0,15.0,18,0.00,,,0.00,Wunderground v.1.15,2013-06-27 01:20:00,
2013-06-26 18:26:00,101.2,48.3,29.70,SW,229,11.0,16.0,17,0.00,,,0.00,Wunderground v.1.15,2013-06-27 01:26:00,
2013-06-26 18:32:00,100.6,49.4,29.70,WNW,284,14.0,17.0,18,0.00,,,0.00,Wunderground v.1.15,2013-06-27 01:32:00,
2013-06-26 18:38:00,100.2,49.1,29.70,West,271,12.0,17.0,18,0.00,,,0.00,Wunderground v.1.15,2013-06-27 01:38:00,
2013-06-26 18:44:00,99.9,48.8,29.70,West,263,11.0,15.0,18,0.00,,,0.00,Wunderground v.1.15,2013-06-27 01:44:00,
2013-06-26 18:50:00,99.7,48.7,29.70,WSW,254,10.0,10.0,18,0.00,,,0.00,Wunderground v.1.15,2013-06-27 01:50:00,
2013-06-26 18:56:00,99.0,49.5,29.70,WSW,238,11.0,12.0,19,0.00,,,0.00,Wunderground v.1.15,2013-06-27 01:56:00,
2013-06-26 19:02:00,98.7,49.3,29.71,WSW,252,11.0,11.0,19,0.00,,,0.00,Wunderground v.1.15,2013-06-27 02:02:00,
2013-06-26 19:08:00,98.4,49.0,29.71,West,265,10.0,11.0,19,0.00,,,0.00,Wunderground v.1.15,2013-06-27 02:08:00,
2013-06-26 19:14:00,98.1,48.8,29.71,WSW,241,11.0,12.0,19,0.00,,,0.00,Wunderground v.1.15,2013-06-27 02:14:00,
2013-06-26 19:20:00,97.4,48.2,29.71,WSW,250,11.0,11.0,19,0.00,,,0.00,Wunderground v.1.15,2013-06-27 02:20:00,
2013-06-26 19:26:00,97.1,48.0,29.71,WSW,240,10.0,11.0,19,0.00,,,0.00,Wunderground v.1.15,2013-06-27 02:26:00,
2013-06-26 19:32:00,96.9,47.8,29.71,SW,224,9.0,13.0,19,0.00,,,0.00,Wunderground v.1.15,2013-06-27 02:32:00,
2013-06-26 19:38:00,96.5,48.9,29.71,WSW,237,11.0,13.0,20,0.00,,,0.00,Wunderground v.1.15,2013-06-27 02:38:00,
2013-06-26 19:44:00,95.7,52.0,29.71,SW,235,12.0,17.0,23,0.00,,,0.00,Wunderground v.1.15,2013-06-27 02:44:00,
2013-06-26 19:50:00,95.1,51.5,29.71,SW,234,11.0,15.0,23,0.00,,,0.00,Wunderground v.1.15,2013-06-27 02:50:00,
2013-06-26 19:56:00,94.5,52.1,29.71,SW,232,9.0,15.0,24,0.00,,,0.00,Wunderground v.1.15,2013-06-27 02:56:00,
2013-06-26 20:02:00,94.1,51.8,29.71,SW,235,12.0,14.0,24,0.00,,,0.00,Wunderground v.1.15,2013-06-27 03:02:00,
2013-06-26 20:08:00,93.8,52.7,29.72,WSW,251,13.0,14.0,25,0.00,,,0.00,Wunderground v.1.15,2013-06-27 03:08:00,
2013-06-26 20:14:00,93.4,52.3,29.72,SW,230,14.0,16.0,25,0.00,,,0.00,Wunderground v.1.15,2013-06-27 03:14:00,
2013-06-26 20:20:00,92.9,53.0,29.72,SW,223,13.0,13.0,26,0.00,,,0.00,Wunderground v.1.15,2013-06-27 03:20:00,
2013-06-26 20:26:00,92.6,52.7,29.72,SW,224,13.0,14.0,26,0.00,,,0.00,Wunderground v.1.15,2013-06-27 03:26:00,
2013-06-26 20:32:00,92.2,52.4,29.72,SW,219,13.0,15.0,26,0.00,,,0.00,Wunderground v.1.15,2013-06-27 03:32:00,
2013-06-26 20:38:00,92.0,52.2,29.73,SW,224,15.0,17.0,26,0.00,,,0.00,Wunderground v.1.15,2013-06-27 03:38:00,
2013-06-26 20:44:00,91.8,52.0,29.73,SSW,192,14.0,15.0,26,0.00,,,0.00,Wunderground v.1.15,2013-06-27 03:44:00,
2013-06-26 20:50:00,91.5,51.8,29.73,SW,221,13.0,13.0,26,0.00,,,0.00,Wunderground v.1.15,2013-06-27 03:50:00,
2013-06-26 20:56:00,91.3,52.6,29.73,SW,214,13.0,14.0,27,0.00,,,0.00,Wunderground v.1.15,2013-06-27 03:56:00,
2013-06-26 21:02:00,91.0,52.4,29.73,SSW,198,13.0,14.0,27,0.00,,,0.00,Wunderground v.1.15,2013-06-27 04:02:00,
2013-06-26 21:04:00,90.9,52.3,29.74,SSW,213,12.0,14.0,27,0.00,,,0.00,Wunderground v.1.15,2013-06-27 04:04:00,
2013-06-26 21:06:00,90.8,51.2,29.73,South,191,12.0,14.0,26,0.00,,,0.00,Wunderground v.1.15,2013-06-27 04:06:00,
2013-06-26 21:12:00,90.5,50.9,29.74,WSW,246,11.0,11.0,26,0.00,,,0.00,Wunderground v.1.15,2013-06-27 04:12:00,
2013-06-26 21:16:00,90.3,50.8,29.74,SSW,196,10.0,14.0,26,0.00,,,0.00,Wunderground v.1.15,2013-06-27 04:16:00,
2013-06-26 21:18:00,90.2,50.7,29.74,SSW,200,10.0,14.0,26,0.00,,,0.00,Wunderground v.1.15,2013-06-27 04:18:00,
2013-06-26 21:24:00,90.1,51.6,29.74,SSW,192,11.0,18.0,27,0.00,,,0.00,Wunderground v.1.15,2013-06-27 04:24:00,
2013-06-26 21:30:00,89.7,51.3,29.74,South,178,13.0,15.0,27,0.00,,,0.00,Wunderground v.1.15,2013-06-27 04:30:00,
2013-06-26 21:36:00,89.6,51.2,29.75,SSW,200,14.0,17.0,27,0.00,,,0.00,Wunderground v.1.15,2013-06-27 04:36:00,
2013-06-26 21:42:00,89.3,50.9,29.75,SSW,200,14.0,17.0,27,0.00,,,0.00,Wunderground v.1.15,2013-06-27 04:42:00,
2013-06-26 21:48:00,89.1,51.7,29.75,South,185,17.0,20.0,28,0.00,,,0.00,Wunderground v.1.15,2013-06-27 04:48:00,
2013-06-26 21:54:00,88.8,51.5,29.75,SSW,198,19.0,21.0,28,0.00,,,0.00,Wunderground v.1.15,2013-06-27 04:54:00,
2013-06-26 22:00:00,88.6,52.3,29.75,SSW,196,19.0,19.0,29,0.00,,,0.00,Wunderground v.1.15,2013-06-27 05:00:00,
2013-06-26 22:06:00,88.3,52.0,29.76,South,189,19.0,20.0,29,0.00,,,0.00,Wunderground v.1.15,2013-06-27 05:06:00,
2013-06-26 22:12:00,88.2,51.9,29.76,SSW,194,18.0,22.0,29,0.00,,,0.00,Wunderground v.1.15,2013-06-27 05:12:00,
2013-06-26 22:18:00,88.2,51.9,29.76,SSW,198,17.0,22.0,29,0.00,,,0.00,Wunderground v.1.15,2013-06-27 05:18:00,
2013-06-26 22:24:00,87.9,52.6,29.76,South,182,18.0,22.0,30,0.00,,,0.00,Wunderground v.1.15,2013-06-27 05:24:00,
2013-06-26 22:30:00,87.4,52.2,29.76,SSW,201,17.0,18.0,30,0.00,,,0.00,Wunderground v.1.15,2013-06-27 05:30:00,
2013-06-26 22:36:00,87.1,52.8,29.76,SSW,206,17.0,19.0,31,0.00,,,0.00,Wunderground v.1.15,2013-06-27 05:36:00,
2013-06-26 22:42:00,86.3,53.0,29.76,SSW,195,16.0,16.0,32,0.00,,,0.00,Wunderground v.1.15,2013-06-27 05:42:00,
2013-06-26 22:48:00,86.2,52.9,29.76,SSW,196,16.0,18.0,32,0.00,,,0.00,Wunderground v.1.15,2013-06-27 05:48:00,
2013-06-26 22:54:00,86.3,53.0,29.76,South,176,18.0,24.0,32,0.00,,,0.00,Wunderground v.1.15,2013-06-27 05:54:00,
2013-06-26 23:00:00,86.3,53.0,29.76,South,186,20.0,20.0,32,0.00,,,0.00,Wunderground v.1.15,2013-06-27 06:00:00,
2013-06-26 23:06:00,86.2,52.9,29.76,SSW,197,20.0,20.0,32,0.00,,,0.00,Wunderground v.1.15,2013-06-27 06:06:00,
2013-06-26 23:12:00,86.0,52.7,29.76,SSW,198,18.0,20.0,32,0.00,,,0.00,Wunderground v.1.15,2013-06-27 06:12:00,
2013-06-26 23:18:00,85.8,53.4,29.77,SW,215,17.0,20.0,33,0.00,,,0.00,Wunderground v.1.15,2013-06-27 06:18:00,
2013-06-26 23:24:00,85.9,52.6,29.77,South,191,16.0,20.0,32,0.00,,,0.00,Wunderground v.1.15,2013-06-27 06:24:00,
2013-06-26 23:30:00,85.7,53.3,29.77,SSW,203,16.0,21.0,33,0.00,,,0.00,Wunderground v.1.15,2013-06-27 06:30:00,
2013-06-26 23:36:00,85.5,53.1,29.77,SSW,192,17.0,21.0,33,0.00,,,0.00,Wunderground v.1.15,2013-06-27 06:36:00,
2013-06-26 23:42:00,85.4,53.0,29.77,SSW,193,17.0,17.0,33,0.00,,,0.00,Wunderground v.1.15,2013-06-27 06:42:00,
2013-06-26 23:48:00,85.3,52.9,29.77,SSW,199,17.0,18.0,33,0.00,,,0.00,Wunderground v.1.15,2013-06-27 06:48:00,
2013-06-26 23:54:00,85.3,52.9,29.77,SSW,211,16.0,18.0,33,0.00,,,0.00,Wunderground v.1.15,2013-06-27 06:54:00,